Time,TemperatureF,DewpointF,PressureIn,WindDirection,WindDirectionDegrees,WindSpeedMPH,WindSpeedGustMPH,Humidity,HourlyPrecipIn,Conditions,Clouds,dailyrainin,SolarRadiationWatts/m^2,SoftwareType,DateUTC
2013-07-08 00:01:00,66.5,65.6,30.08,South,171,0.0,0.0,97,0.00,,---,0.12,0.00,VWS V14.01,2013-07-08 04:01:00,
2013-07-08 00:02:00,66.5,65.6,30.08,South,171,0.0,0.0,97,0.00,,---,0.12,0.00,VWS V14.01,2013-07-08 04:02:00,
2013-07-08 00:03:00,66.5,65.6,30.08,South,171,0.0,0.0,97,0.00,,---,0.12,0.00,VWS V14.01,2013-07-08 04:03:00,
2013-07-08 00:07:00,66.4,65.5,30.08,South,171,0.0,0.0,97,0.00,,---,0.12,0.00,VWS V14.01,2013-07-08 04:07:00,
2013-07-08 00:12:00,66.3,65.4,30.08,South,171,0.0,0.0,97,0.00,,---,0.00,0.00,VWS V14.01,2013-07-08 04:12:00,
2013-07-08 00:17:00,66.3,65.4,30.09,South,171,0.0,0.0,97,0.00,,---,0.00,0.00,VWS V14.01,2013-07-08 04:17:00,
2013-07-08 00:22:00,66.2,65.3,30.09,South,171,0.0,0.0,97,0.00,,---,0.00,0.00,VWS V14.01,2013-07-08 04:22:00,
2013-07-08 00:27:00,66.1,65.2,30.09,South,171,0.0,0.0,97,0.00,,---,0.00,0.00,VWS V14.01,2013-07-08 04:27:00,
2013-07-08 00:32:00,66.1,65.2,30.09,South,171,0.0,0.0,97,0.00,,---,0.00,0.00,VWS V14.01,2013-07-08 04:32:00,
2013-07-08 00:37:00,66.0,65.1,30.09,South,171,0.0,0.0,97,0.00,,---,0.00,0.00,VWS V14.01,2013-07-08 04:37:00,
2013-07-08 00:42:00,65.9,65.0,30.09,South,171,0.0,0.0,97,0.00,,---,0.00,0.00,VWS V14.01,2013-07-08 04:42:00,
2013-07-08 00:47:00,65.7,64.8,30.09,South,171,0.0,0.0,97,0.00,,---,0.00,0.00,VWS V14.01,2013-07-08 04:47:00,
2013-07-08 00:52:00,65.6,64.7,30.09,South,171,0.0,0.0,97,0.00,,---,0.00,0.00,VWS V14.01,2013-07-08 04:52:00,
2013-07-08 00:57:00,65.4,64.5,30.09,South,171,0.0,0.0,97,0.00,,---,0.00,0.00,VWS V14.01,2013-07-08 04:57:00,
2013-07-08 01:03:00,65.3,64.4,30.09,South,171,0.0,0.0,97,0.00,,---,0.00,0.00,VWS V14.01,2013-07-08 05:03:00,
2013-07-08 01:08:00,65.5,64.9,30.09,South,171,0.0,0.0,98,0.00,,---,0.00,0.00,VWS V14.01,2013-07-08 05:08:00,
2013-07-08 01:13:00,65.7,65.1,30.09,South,171,0.0,0.0,98,0.00,,---,0.00,0.00,VWS V14.01,2013-07-08 05:13:00,
2013-07-08 01:18:00,65.8,65.2,30.09,South,171,0.0,0.0,98,0.00,,---,0.00,0.00,VWS V14.01,2013-07-08 05:18:00,
2013-07-08 01:23:00,65.8,65.2,30.09,South,171,0.0,0.0,98,0.00,,---,0.00,0.00,VWS V14.01,2013-07-08 05:23:00,
2013-07-08 01:28:00,65.7,65.1,30.10,South,171,0.0,0.0,98,0.00,,---,0.00,0.00,VWS V14.01,2013-07-08 05:28:00,
2013-07-08 01:33:00,65.7,65.1,30.09,South,171,0.0,0.0,98,0.00,,---,0.00,0.00,VWS V14.01,2013-07-08 05:33:00,
2013-07-08 01:38:00,65.6,65.0,30.09,South,171,0.0,0.0,98,0.00,,---,0.00,0.00,VWS V14.01,2013-07-08 05:38:00,
2013-07-08 01:43:00,65.6,65.0,30.09,South,171,0.0,0.0,98,0.00,,---,0.00,0.00,VWS V14.01,2013-07-08 05:43:00,
2013-07-08 01:48:00,65.6,65.0,30.09,South,171,0.0,0.0,98,0.00,,---,0.00,0.00,VWS V14.01,2013-07-08 05:48:00,
2013-07-08 01:54:00,65.4,64.8,30.09,South,171,0.0,0.0,98,0.00,,---,0.00,0.00,VWS V14.01,2013-07-08 05:54:00,
2013-07-08 01:59:00,65.3,64.7,30.09,South,171,0.0,0.0,98,0.00,,---,0.00,0.00,VWS V14.01,2013-07-08 05:59:00,
2013-07-08 02:04:00,65.2,64.6,30.09,South,171,0.0,0.0,98,0.00,,---,0.00,0.00,VWS V14.01,2013-07-08 06:04:00,
2013-07-08 02:09:00,65.2,64.6,30.08,South,171,0.0,0.0,98,0.00,,---,0.00,0.00,VWS V14.01,2013-07-08 06:09:00,
2013-07-08 02:14:00,65.1,64.5,30.08,South,171,0.0,0.0,98,0.00,,---,0.00,0.00,VWS V14.01,2013-07-08 06:14:00,
2013-07-08 02:19:00,65.1,64.5,30.08,South,171,0.0,0.0,98,0.00,,---,0.00,0.00,VWS V14.01,2013-07-08 06:19:00,
2013-07-08 02:24:00,65.0,64.4,30.08,South,171,0.0,0.0,98,0.00,,---,0.00,0.00,VWS V14.01,2013-07-08 06:24:00,
2013-07-08 02:29:00,64.7,64.1,30.08,South,171,0.0,0.0,98,0.00,,---,0.00,0.00,VWS V14.01,2013-07-08 06:29:00,
2013-07-08 02:34:00,64.7,64.1,30.08,South,171,0.0,0.0,98,0.00,,---,0.00,0.00,VWS V14.01,2013-07-08 06:34:00,
2013-07-08 02:40:00,64.7,64.1,30.08,South,171,0.0,0.0,98,0.00,,---,0.00,0.00,VWS V14.01,2013-07-08 06:40:00,
2013-07-08 02:45:00,64.6,64.0,30.08,South,171,0.0,0.0,98,0.00,,---,0.00,0.00,VWS V14.01,2013-07-08 06:45:00,
2013-07-08 02:50:00,64.5,63.9,30.08,South,171,0.0,0.0,98,0.00,,---,0.00,0.00,VWS V14.01,2013-07-08 06:50:00,
2013-07-08 02:55:00,64.4,63.8,30.09,South,171,0.0,0.0,98,0.00,,---,0.00,0.00,VWS V14.01,2013-07-08 06:55:00,
2013-07-08 03:00:00,64.3,63.7,30.08,South,171,0.0,0.0,98,0.00,,---,0.00,0.00,VWS V14.01,2013-07-08 07:00:00,
2013-07-08 03:05:00,64.3,63.7,30.08,South,171,0.0,0.0,98,0.00,,---,0.00,0.00,VWS V14.01,2013-07-08 07:05:00,
2013-07-08 03:10:00,64.3,63.7,30.08,South,171,0.0,0.0,98,0.00,,---,0.00,0.00,VWS V14.01,2013-07-08 07:10:00,
2013-07-08 03:15:00,64.3,63.7,30.09,South,171,0.0,0.0,98,0.00,,---,0.00,0.00,VWS V14.01,2013-07-08 07:15:00,
2013-07-08 03:20:00,64.5,63.9,30.09,South,171,0.0,0.0,98,0.00,,---,0.00,0.00,VWS V14.01,2013-07-08 07:20:00,
2013-07-08 03:25:00,64.6,64.0,30.09,South,171,0.0,0.0,98,0.00,,---,0.00,0.00,VWS V14.01,2013-07-08 07:25:00,
2013-07-08 03:31:00,64.7,64.1,30.09,South,171,0.0,0.0,98,0.00,,---,0.00,0.00,VWS V14.01,2013-07-08 07:31:00,
2013-07-08 03:36:00,64.9,64.3,30.09,South,171,0.0,0.0,98,0.00,,---,0.00,0.00,VWS V14.01,2013-07-08 07:36:00,
2013-07-08 03:41:00,65.1,64.5,30.09,South,171,0.0,0.0,98,0.00,,---,0.00,0.00,VWS V14.01,2013-07-08 07:41:00,
2013-07-08 03:46:00,65.2,64.6,30.09,South,171,0.0,0.0,98,0.00,,---,0.00,0.00,VWS V14.01,2013-07-08 07:46:00,
2013-07-08 03:51:00,65.2,64.6,30.09,South,171,0.0,0.0,98,0.00,,---,0.00,0.00,VWS V14.01,2013-07-08 07:51:00,
2013-07-08 03:56:00,65.3,64.7,30.09,South,171,0.0,0.0,98,0.00,,---,0.00,0.00,VWS V14.01,2013-07-08 07:56:00,
2013-07-08 04:01:00,65.4,65.1,30.09,South,171,0.0,0.0,99,0.00,,---,0.00,0.00,VWS V14.01,2013-07-08 08:01:00,
2013-07-08 04:06:00,65.5,65.2,30.09,South,171,0.0,0.0,99,0.00,,---,0.00,0.00,VWS V14.01,2013-07-08 08:06:00,
2013-07-08 04:11:00,65.6,65.3,30.09,South,171,0.0,0.0,99,0.00,,---,0.00,0.00,VWS V14.01,2013-07-08 08:11:00,
2013-07-08 04:17:00,65.6,65.3,30.09,South,171,0.0,0.0,99,0.00,,---,0.00,0.00,VWS V14.01,2013-07-08 08:17:00,
2013-07-08 04:22:00,65.7,65.4,30.09,South,171,0.0,0.0,99,0.00,,---,0.00,0.00,VWS V14.01,2013-07-08 08:22:00,
2013-07-08 04:27:00,65.7,65.4,30.10,South,171,0.0,0.0,99,0.00,,---,0.00,0.00,VWS V14.01,2013-07-08 08:27:00,
2013-07-08 04:32:00,65.8,65.5,30.10,South,171,0.0,0.0,99,0.00,,---,0.00,0.00,VWS V14.01,2013-07-08 08:32:00,
2013-07-08 04:37:00,65.8,65.5,30.09,South,171,0.0,0.0,99,0.00,,---,0.00,0.00,VWS V14.01,2013-07-08 08:37:00,
2013-07-08 04:42:00,65.9,65.6,30.09,South,171,0.0,0.0,99,0.00,,---,0.00,0.00,VWS V14.01,2013-07-08 08:42:00,
2013-07-08 04:47:00,65.9,65.6,30.09,South,171,0.0,0.0,99,0.00,,---,0.00,0.00,VWS V14.01,2013-07-08 08:47:00,
2013-07-08 04:52:00,66.0,65.7,30.09,South,171,0.0,0.0,99,0.00,,---,0.00,0.00,VWS V14.01,2013-07-08 08:52:00,
2013-07-08 04:57:00,66.1,65.8,30.09,South,171,0.0,0.0,99,0.00,,---,0.00,0.00,VWS V14.01,2013-07-08 08:57:00,
2013-07-08 05:02:00,66.1,65.8,30.10,South,171,0.0,0.0,99,0.00,,---,0.00,0.00,VWS V14.01,2013-07-08 09:02:00,
2013-07-08 05:07:00,66.1,65.8,30.10,South,171,0.0,0.0,99,0.00,,---,0.00,0.00,VWS V14.01,2013-07-08 09:07:00,
2013-07-08 05:13:00,66.2,65.9,30.10,South,171,0.0,0.0,99,0.00,,---,0.00,0.00,VWS V14.01,2013-07-08 09:13:00,
2013-07-08 05:18:00,66.2,65.9,30.10,South,171,0.0,0.0,99,0.00,,---,0.00,0.00,VWS V14.01,2013-07-08 09:18:00,
2013-07-08 05:23:00,66.2,65.9,30.10,South,171,0.0,0.0,99,0.00,,---,0.00,0.00,VWS V14.01,2013-07-08 09:23:00,
2013-07-08 05:28:00,66.1,65.8,30.09,South,171,0.0,0.0,99,0.00,,---,0.00,0.00,VWS V14.01,2013-07-08 09:28:00,
2013-07-08 05:33:00,66.1,65.8,30.10,South,171,0.0,0.0,99,0.00,,---,0.00,0.00,VWS V14.01,2013-07-08 09:33:00,
2013-07-08 05:38:00,66.1,65.8,30.10,South,171,0.0,0.0,99,0.00,,---,0.00,0.00,VWS V14.01,2013-07-08 09:38:00,
2013-07-08 05:43:00,66.1,65.8,30.10,South,171,0.0,0.0,99,0.00,,---,0.00,0.00,VWS V14.01,2013-07-08 09:43:00,
2013-07-08 05:48:00,66.1,65.8,30.10,South,171,0.0,0.0,99,0.00,,---,0.00,0.00,VWS V14.01,2013-07-08 09:48:00,
2013-07-08 05:53:00,66.1,65.8,30.10,South,171,0.0,0.0,99,0.00,,---,0.00,0.00,VWS V14.01,2013-07-08 09:53:00,
2013-07-08 05:58:00,66.1,65.8,30.10,South,171,0.0,0.0,99,0.00,,---,0.00,0.00,VWS V14.01,2013-07-08 09:58:00,
2013-07-08 06:03:00,66.1,65.8,30.10,South,171,0.0,0.0,99,0.00,,---,0.00,0.00,VWS V14.01,2013-07-08 10:03:00,
2013-07-08 06:09:00,66.1,65.8,30.10,South,171,0.0,0.0,99,0.00,,---,0.00,0.00,VWS V14.01,2013-07-08 10:09:00,
2013-07-08 06:14:00,66.0,65.7,30.10,South,171,0.0,0.0,99,0.00,,---,0.00,0.00,VWS V14.01,2013-07-08 10:14:00,
2013-07-08 06:19:00,66.0,65.7,30.10,South,171,0.0,0.0,99,0.00,,---,0.00,0.00,VWS V14.01,2013-07-08 10:19:00,
2013-07-08 06:24:00,65.9,65.3,30.10,South,171,0.0,0.0,98,0.00,,---,0.00,5.00,VWS V14.01,2013-07-08 10:24:00,
2013-07-08 06:29:00,65.9,65.3,30.10,South,171,0.0,0.0,98,0.00,,---,0.00,5.00,VWS V14.01,2013-07-08 10:29:00,
2013-07-08 06:34:00,65.8,65.2,30.11,South,171,0.0,0.0,98,0.00,,---,0.00,5.00,VWS V14.01,2013-07-08 10:34:00,
2013-07-08 06:39:00,65.9,65.3,30.11,WNW,298,0.0,0.0,98,0.00,,---,0.00,7.00,VWS V14.01,2013-07-08 10:39:00,
2013-07-08 06:44:00,66.0,65.7,30.11,WNW,298,0.0,0.0,99,0.00,,---,0.00,9.00,VWS V14.01,2013-07-08 10:44:00,
2013-07-08 06:49:00,66.1,65.8,30.11,WNW,298,0.0,0.0,99,0.00,,---,0.00,12.00,VWS V14.01,2013-07-08 10:49:00,
2013-07-08 06:55:00,66.2,65.9,30.11,WNW,298,0.0,0.0,99,0.00,,---,0.00,18.00,VWS V14.01,2013-07-08 10:55:00,
2013-07-08 07:00:00,66.3,66.0,30.11,WNW,298,0.0,0.0,99,0.00,,---,0.00,21.00,VWS V14.01,2013-07-08 11:00:00,
2013-07-08 07:05:00,66.5,66.2,30.11,WNW,298,0.0,0.0,99,0.00,,---,0.00,26.00,VWS V14.01,2013-07-08 11:05:00,
2013-07-08 07:10:00,66.6,66.3,30.11,WNW,298,0.0,0.0,99,0.00,,---,0.00,25.00,VWS V14.01,2013-07-08 11:10:00,
2013-07-08 07:15:00,66.7,66.4,30.11,WNW,298,0.0,0.0,99,0.00,,---,0.00,28.00,VWS V14.01,2013-07-08 11:15:00,
2013-07-08 07:20:00,66.8,66.5,30.11,WNW,298,0.0,0.0,99,0.00,,---,0.00,40.00,VWS V14.01,2013-07-08 11:20:00,
2013-07-08 07:25:00,66.8,66.5,30.11,WNW,298,0.0,0.0,99,0.00,,---,0.00,42.00,VWS V14.01,2013-07-08 11:25:00,
2013-07-08 07:30:00,66.9,66.6,30.10,WNW,298,0.0,0.0,99,0.00,,---,0.00,60.00,VWS V14.01,2013-07-08 11:30:00,
2013-07-08 07:35:00,67.0,66.7,30.10,WNW,298,0.0,0.0,99,0.00,,---,0.00,69.00,VWS V14.01,2013-07-08 11:35:00,
2013-07-08 07:40:00,67.1,66.8,30.11,WNW,298,0.0,0.0,99,0.00,,---,0.00,76.00,VWS V14.01,2013-07-08 11:40:00,
2013-07-08 07:46:00,67.2,66.9,30.11,WNW,298,0.0,0.0,99,0.00,,---,0.00,90.00,VWS V14.01,2013-07-08 11:46:00,
2013-07-08 07:51:00,67.4,67.1,30.11,WNW,298,0.0,0.0,99,0.00,,---,0.00,86.00,VWS V14.01,2013-07-08 11:51:00,
2013-07-08 07:56:00,67.4,67.1,30.11,WNW,298,0.0,1.0,99,0.00,,---,0.00,88.00,VWS V14.01,2013-07-08 11:56:00,
2013-07-08 08:01:00,67.5,67.2,30.11,WNW,298,0.0,0.0,99,0.00,,---,0.00,83.00,VWS V14.01,2013-07-08 12:01:00,
2013-07-08 08:06:00,67.6,67.3,30.11,WNW,298,0.0,0.0,99,0.00,,---,0.00,98.00,VWS V14.01,2013-07-08 12:06:00,
2013-07-08 08:11:00,67.7,67.4,30.11,WNW,298,0.0,0.0,99,0.00,,---,0.00,98.00,VWS V14.01,2013-07-08 12:11:00,
2013-07-08 08:16:00,67.7,67.4,30.11,WNW,298,0.0,0.0,99,0.00,,---,0.00,100.00,VWS V14.01,2013-07-08 12:16:00,
2013-07-08 08:21:00,67.9,67.6,30.11,WNW,298,0.0,0.0,99,0.00,,---,0.00,127.00,VWS V14.01,2013-07-08 12:21:00,
2013-07-08 08:26:00,68.0,67.7,30.11,WNW,298,0.0,0.0,99,0.00,,---,0.00,123.00,VWS V14.01,2013-07-08 12:26:00,
2013-07-08 08:32:00,68.1,67.8,30.11,WNW,298,0.0,0.0,99,0.00,,---,0.00,144.00,VWS V14.01,2013-07-08 12:32:00,
2013-07-08 08:37:00,68.4,68.1,30.12,WNW,298,0.0,1.0,99,0.00,,---,0.00,181.00,VWS V14.01,2013-07-08 12:37:00,
2013-07-08 08:42:00,68.7,68.4,30.11,WNW,298,0.0,0.0,99,0.00,,---,0.00,179.00,VWS V14.01,2013-07-08 12:42:00,
2013-07-08 08:47:00,69.0,68.7,30.12,WNW,298,0.0,1.0,99,0.00,,---,0.00,204.00,VWS V14.01,2013-07-08 12:47:00,
2013-07-08 08:52:00,69.2,68.9,30.12,WNW,298,0.0,1.0,99,0.00,,---,0.00,178.00,VWS V14.01,2013-07-08 12:52:00,
2013-07-08 08:57:00,69.4,69.1,30.12,WNW,298,0.0,1.0,99,0.00,,---,0.00,156.00,VWS V14.01,2013-07-08 12:57:00,
2013-07-08 09:02:00,69.7,69.4,30.12,WNW,298,0.0,0.0,99,0.00,,---,0.00,176.00,VWS V14.01,2013-07-08 13:02:00,
2013-07-08 09:07:00,70.5,70.2,30.12,WNW,298,0.0,0.0,99,0.00,,---,0.00,195.00,VWS V14.01,2013-07-08 13:07:00,
2013-07-08 09:13:00,70.8,70.5,30.12,NW,315,0.0,1.0,99,0.00,,---,0.00,192.00,VWS V14.01,2013-07-08 13:13:00,
2013-07-08 09:18:00,70.9,70.3,30.13,NNW,329,0.0,1.0,98,0.00,,---,0.00,199.00,VWS V14.01,2013-07-08 13:18:00,
2013-07-08 09:23:00,71.0,70.4,30.13,NNW,329,0.0,0.0,98,0.00,,---,0.00,211.00,VWS V14.01,2013-07-08 13:23:00,
2013-07-08 09:28:00,70.8,69.6,30.13,NNW,348,0.0,1.0,96,0.00,,---,0.00,223.00,VWS V14.01,2013-07-08 13:28:00,
2013-07-08 09:33:00,70.8,69.3,30.13,North,349,0.0,1.0,95,0.00,,---,0.00,236.00,VWS V14.01,2013-07-08 13:33:00,
2013-07-08 09:38:00,70.8,69.3,30.13,North,349,0.0,1.0,95,0.00,,---,0.00,253.00,VWS V14.01,2013-07-08 13:38:00,
2013-07-08 09:43:00,70.8,68.7,30.13,North,349,0.0,1.0,93,0.00,,---,0.00,264.00,VWS V14.01,2013-07-08 13:43:00,
2013-07-08 09:49:00,71.0,68.9,30.13,North,349,0.0,0.0,93,0.00,,---,0.00,272.00,VWS V14.01,2013-07-08 13:49:00,
2013-07-08 09:54:00,71.2,68.8,30.13,North,349,0.0,0.0,92,0.00,,---,0.00,330.00,VWS V14.01,2013-07-08 13:54:00,
2013-07-08 09:59:00,71.7,69.3,30.13,North,350,0.0,1.0,92,0.00,,---,0.00,744.00,VWS V14.01,2013-07-08 13:59:00,
2013-07-08 10:04:00,72.7,70.2,30.13,North,350,0.0,1.0,92,0.00,,---,0.00,494.00,VWS V14.01,2013-07-08 14:04:00,
2013-07-08 10:09:00,73.2,69.8,30.13,North,350,0.0,0.0,89,0.00,,---,0.00,336.00,VWS V14.01,2013-07-08 14:09:00,
2013-07-08 10:14:00,73.9,70.5,30.13,North,350,0.0,0.0,89,0.00,,---,0.00,336.00,VWS V14.01,2013-07-08 14:14:00,
2013-07-08 10:19:00,74.5,71.4,30.13,North,351,0.0,0.0,90,0.00,,---,0.00,362.00,VWS V14.01,2013-07-08 14:19:00,
2013-07-08 10:24:00,74.9,70.4,30.13,North,350,0.0,2.0,86,0.00,,---,0.00,756.00,VWS V14.01,2013-07-08 14:24:00,
2013-07-08 10:29:00,75.1,70.3,30.14,NNW,342,0.0,0.0,85,0.00,,---,0.00,178.00,VWS V14.01,2013-07-08 14:29:00,
2013-07-08 10:35:00,74.9,70.1,30.13,NE,50,0.0,1.0,85,0.00,,---,0.00,160.00,VWS V14.01,2013-07-08 14:35:00,
2013-07-08 10:40:00,74.7,69.9,30.13,NE,50,0.0,0.0,85,0.00,,---,0.00,244.00,VWS V14.01,2013-07-08 14:40:00,
2013-07-08 10:45:00,74.6,70.8,30.13,NE,50,0.0,1.0,88,0.00,,---,0.00,353.00,VWS V14.01,2013-07-08 14:45:00,
2013-07-08 10:50:00,75.0,71.5,30.13,NE,50,0.0,1.0,89,0.00,,---,0.00,851.00,VWS V14.01,2013-07-08 14:50:00,
2013-07-08 10:55:00,75.3,69.8,30.13,NE,50,0.0,1.0,83,0.00,,---,0.00,819.00,VWS V14.01,2013-07-08 14:55:00,
2013-07-08 11:00:00,75.6,70.8,30.13,NE,50,0.0,1.0,85,0.00,,---,0.00,573.00,VWS V14.01,2013-07-08 15:00:00,
2013-07-08 11:05:00,76.0,70.8,30.13,NE,44,0.0,2.0,84,0.00,,---,0.00,350.00,VWS V14.01,2013-07-08 15:05:00,
2013-07-08 11:10:00,76.1,70.2,30.13,NE,39,0.0,2.0,82,0.00,,---,0.00,281.00,VWS V14.01,2013-07-08 15:10:00,
2013-07-08 11:15:00,75.8,70.3,30.13,NE,39,0.0,2.0,83,0.00,,---,0.00,181.00,VWS V14.01,2013-07-08 15:15:00,
2013-07-08 11:20:00,75.7,70.9,30.14,NE,39,0.0,0.0,85,0.00,,---,0.00,141.00,VWS V14.01,2013-07-08 15:20:00,
2013-07-08 11:26:00,75.9,71.1,30.13,NE,39,0.0,1.0,85,0.00,,---,0.00,833.00,VWS V14.01,2013-07-08 15:26:00,
2013-07-08 11:31:00,76.2,70.7,30.13,West,281,0.0,3.0,83,0.00,,---,0.00,884.00,VWS V14.01,2013-07-08 15:31:00,
2013-07-08 11:36:00,76.8,71.2,30.13,NW,309,0.0,3.0,83,0.00,,---,0.00,926.00,VWS V14.01,2013-07-08 15:36:00,
2013-07-08 11:41:00,77.8,72.2,30.13,NW,309,0.0,2.0,83,0.00,,---,0.00,974.00,VWS V14.01,2013-07-08 15:41:00,
2013-07-08 11:46:00,77.9,70.9,30.13,NNE,23,0.0,2.0,79,0.00,,---,0.00,329.00,VWS V14.01,2013-07-08 15:46:00,
2013-07-08 11:51:00,78.0,71.3,30.13,NNE,23,0.0,0.0,80,0.00,,---,0.00,253.00,VWS V14.01,2013-07-08 15:51:00,
2013-07-08 11:56:00,77.9,71.6,30.13,NNE,17,2.0,3.0,81,0.00,,---,0.00,295.00,VWS V14.01,2013-07-08 15:56:00,
2013-07-08 12:01:00,77.9,72.0,30.13,NNE,17,0.0,1.0,82,0.00,,---,0.00,1164.00,VWS V14.01,2013-07-08 16:01:00,
2013-07-08 12:06:00,78.4,71.7,30.13,NNE,16,0.0,2.0,80,0.00,,---,0.00,294.00,VWS V14.01,2013-07-08 16:06:00,
2013-07-08 12:12:00,78.8,72.5,30.13,NNE,17,0.0,1.0,81,0.00,,---,0.00,330.00,VWS V14.01,2013-07-08 16:12:00,
2013-07-08 12:17:00,78.8,72.1,30.13,NNE,17,0.0,1.0,80,0.00,,---,0.00,264.00,VWS V14.01,2013-07-08 16:17:00,
2013-07-08 12:22:00,78.4,70.2,30.13,NW,317,0.0,3.0,76,0.00,,---,0.00,225.00,VWS V14.01,2013-07-08 16:22:00,
2013-07-08 12:27:00,77.9,70.9,30.13,NW,318,0.0,3.0,79,0.00,,---,0.00,255.00,VWS V14.01,2013-07-08 16:27:00,
2013-07-08 12:32:00,77.7,70.3,30.13,NW,318,0.0,1.0,78,0.00,,---,0.00,1172.00,VWS V14.01,2013-07-08 16:32:00,
2013-07-08 12:37:00,78.3,71.6,30.13,NW,318,0.0,1.0,80,0.00,,---,0.00,380.00,VWS V14.01,2013-07-08 16:37:00,
2013-07-08 12:42:00,78.4,71.3,30.12,SW,226,2.0,5.0,79,0.00,,---,0.00,355.00,VWS V14.01,2013-07-08 16:42:00,
2013-07-08 12:47:00,78.3,71.6,30.12,WSW,237,1.0,5.0,80,0.00,,---,0.00,1134.00,VWS V14.01,2013-07-08 16:47:00,
2013-07-08 12:53:00,78.8,71.7,30.12,WSW,238,0.0,1.0,79,0.00,,---,0.00,1165.00,VWS V14.01,2013-07-08 16:53:00,
2013-07-08 12:58:00,79.2,71.8,30.12,SSW,213,2.0,3.0,78,0.00,,---,0.00,339.00,VWS V14.01,2013-07-08 16:58:00,
2013-07-08 13:03:00,79.0,72.3,30.12,WSW,242,4.0,4.0,80,0.00,,---,0.00,353.00,VWS V14.01,2013-07-08 17:03:00,
2013-07-08 13:08:00,79.2,71.4,30.12,NW,304,0.0,4.0,77,0.00,,---,0.00,1223.00,VWS V14.01,2013-07-08 17:08:00,
2013-07-08 13:13:00,79.2,71.4,30.12,West,265,1.0,6.0,77,0.00,,---,0.00,287.00,VWS V14.01,2013-07-08 17:13:00,
2013-07-08 13:18:00,79.2,72.5,30.12,NE,42,4.0,6.0,80,0.00,,---,0.00,1092.00,VWS V14.01,2013-07-08 17:18:00,
2013-07-08 13:23:00,79.6,71.4,30.12,West,270,0.0,4.0,76,0.00,,---,0.00,1107.00,VWS V14.01,2013-07-08 17:23:00,
2013-07-08 13:28:00,79.8,71.6,30.12,SW,232,1.0,4.0,76,0.00,,---,0.00,1143.00,VWS V14.01,2013-07-08 17:28:00,
2013-07-08 13:33:00,80.1,71.1,30.12,West,262,0.0,5.0,74,0.00,,---,0.00,1215.00,VWS V14.01,2013-07-08 17:33:00,
2013-07-08 13:38:00,80.3,71.7,30.11,West,265,0.0,1.0,75,0.00,,---,0.00,255.00,VWS V14.01,2013-07-08 17:38:00,
2013-07-08 13:43:00,80.1,71.1,30.11,WSW,257,0.0,1.0,74,0.00,,---,0.00,142.00,VWS V14.01,2013-07-08 17:43:00,
2013-07-08 13:48:00,79.7,71.5,30.11,WSW,244,0.0,0.0,76,0.00,,---,0.00,176.00,VWS V14.01,2013-07-08 17:48:00,
2013-07-08 13:54:00,79.7,72.2,30.11,WSW,248,0.0,1.0,78,0.00,,---,0.00,1106.00,VWS V14.01,2013-07-08 17:54:00,
2013-07-08 13:59:00,80.2,71.6,30.11,SW,235,0.0,2.0,75,0.00,,---,0.00,1071.00,VWS V14.01,2013-07-08 17:59:00,
2013-07-08 14:04:00,80.7,71.2,30.11,NE,46,0.0,2.0,73,0.00,,---,0.00,1090.00,VWS V14.01,2013-07-08 18:04:00,
2013-07-08 14:10:00,81.3,73.4,30.10,NE,46,0.0,1.0,77,0.00,,---,0.00,1157.00,VWS V14.01,2013-07-08 18:10:00,
2013-07-08 14:15:00,81.5,71.2,30.10,WSW,249,5.0,7.0,71,0.00,,---,0.00,181.00,VWS V14.01,2013-07-08 18:15:00,
2013-07-08 14:20:00,80.7,70.8,30.10,SW,229,0.0,2.0,72,0.00,,---,0.00,1118.00,VWS V14.01,2013-07-08 18:20:00,
2013-07-08 14:26:00,80.9,71.0,30.10,NW,313,0.0,10.0,72,0.00,,---,0.00,1178.00,VWS V14.01,2013-07-08 18:26:00,
2013-07-08 14:31:00,81.3,72.2,30.10,NNE,17,1.0,3.0,74,0.00,,---,0.00,1223.00,VWS V14.01,2013-07-08 18:31:00,
2013-07-08 14:36:00,80.7,70.0,30.10,SW,226,2.0,10.0,70,0.00,,---,0.00,204.00,VWS V14.01,2013-07-08 18:36:00,
2013-07-08 14:41:00,79.6,69.8,30.10,West,262,3.0,5.0,72,0.00,,---,0.00,202.00,VWS V14.01,2013-07-08 18:41:00,
2013-07-08 14:46:00,80.0,71.0,30.10,WSW,247,0.0,5.0,74,0.00,,---,0.00,1104.00,VWS V14.01,2013-07-08 18:46:00,
2013-07-08 14:52:00,80.7,72.0,30.10,SW,230,0.0,5.0,75,0.00,,---,0.00,1164.00,VWS V14.01,2013-07-08 18:52:00,
2013-07-08 14:57:00,80.9,71.4,30.10,West,277,0.0,7.0,73,0.00,,---,0.00,1116.00,VWS V14.01,2013-07-08 18:57:00,
2013-07-08 15:04:00,81.2,71.3,30.09,SW,227,0.0,6.0,72,0.00,,---,0.00,388.00,VWS V14.01,2013-07-08 19:04:00,
2013-07-08 15:09:00,81.4,72.3,30.10,SW,227,0.0,1.0,74,0.00,,---,0.00,671.00,VWS V14.01,2013-07-08 19:09:00,
2013-07-08 15:14:00,81.8,72.3,30.09,SW,227,0.0,2.0,73,0.00,,---,0.00,745.00,VWS V14.01,2013-07-08 19:14:00,
2013-07-08 15:19:00,81.9,71.2,30.09,SW,228,0.0,1.0,70,0.00,,---,0.00,237.00,VWS V14.01,2013-07-08 19:19:00,
2013-07-08 15:24:00,81.8,71.1,30.09,SW,228,0.0,2.0,70,0.00,,---,0.00,1011.00,VWS V14.01,2013-07-08 19:24:00,
2013-07-08 15:29:00,82.1,70.9,30.09,WNW,298,0.0,0.0,69,0.00,,---,0.00,889.00,VWS V14.01,2013-07-08 19:29:00,
2013-07-08 15:35:00,82.6,72.7,30.09,WSW,242,1.0,5.0,72,0.00,,---,0.00,991.00,VWS V14.01,2013-07-08 19:35:00,
2013-07-08 15:40:00,82.9,71.7,30.08,West,281,1.0,3.0,69,0.00,,---,0.00,993.00,VWS V14.01,2013-07-08 19:40:00,
2013-07-08 15:46:00,83.3,73.3,30.09,SSE,167,1.0,5.0,72,0.00,,---,0.00,976.00,VWS V14.01,2013-07-08 19:46:00,
2013-07-08 15:51:00,83.5,71.4,30.08,West,266,1.0,3.0,67,0.00,,---,0.00,998.00,VWS V14.01,2013-07-08 19:51:00,
2013-07-08 15:56:00,83.2,72.0,30.08,WSW,245,0.0,6.0,69,0.00,,---,0.00,308.00,VWS V14.01,2013-07-08 19:56:00,
2013-07-08 16:02:00,82.9,70.8,30.08,SSW,207,1.0,4.0,67,0.00,,---,0.00,821.00,VWS V14.01,2013-07-08 20:02:00,
2013-07-08 16:07:00,82.9,71.7,30.07,SSE,147,0.0,4.0,69,0.00,,---,0.00,882.00,VWS V14.01,2013-07-08 20:07:00,
2013-07-08 16:12:00,83.4,72.6,30.07,SSE,166,1.0,2.0,70,0.00,,---,0.00,884.00,VWS V14.01,2013-07-08 20:12:00,
2013-07-08 16:18:00,83.9,70.9,30.07,WNW,293,1.0,4.0,65,0.00,,---,0.00,877.00,VWS V14.01,2013-07-08 20:18:00,
2013-07-08 16:24:00,84.0,71.0,30.07,WNW,284,0.0,3.0,65,0.00,,---,0.00,861.00,VWS V14.01,2013-07-08 20:24:00,
2013-07-08 16:29:00,84.3,72.6,30.07,WNW,284,0.0,1.0,68,0.00,,---,0.00,819.00,VWS V14.01,2013-07-08 20:29:00,
2013-07-08 16:34:00,84.7,72.1,30.06,NE,51,3.0,3.0,66,0.00,,---,0.00,775.00,VWS V14.01,2013-07-08 20:34:00,
2013-07-08 16:40:00,84.7,70.2,30.06,South,180,0.0,2.0,62,0.00,,---,0.00,689.00,VWS V14.01,2013-07-08 20:40:00,
2013-07-08 16:45:00,84.7,71.2,30.06,WSW,242,1.0,2.0,64,0.00,,---,0.00,737.00,VWS V14.01,2013-07-08 20:45:00,
2013-07-08 16:50:00,84.5,69.1,30.06,WSW,248,0.0,0.0,60,0.00,,---,0.00,789.00,VWS V14.01,2013-07-08 20:50:00,
2013-07-08 16:55:00,84.6,68.2,30.05,WSW,250,0.0,2.0,58,0.00,,---,0.00,684.00,VWS V14.01,2013-07-08 20:55:00,
2013-07-08 17:01:00,84.8,71.3,30.05,WSW,250,0.0,2.0,64,0.00,,---,0.00,765.00,VWS V14.01,2013-07-08 21:01:00,
2013-07-08 17:06:00,85.3,74.0,30.05,WSW,250,0.0,2.0,69,0.00,,---,0.00,715.00,VWS V14.01,2013-07-08 21:06:00,
2013-07-08 17:12:00,85.8,70.8,30.04,WSW,250,0.0,0.0,61,0.00,,---,0.00,761.00,VWS V14.01,2013-07-08 21:12:00,
2013-07-08 17:17:00,86.3,71.3,30.04,WSW,250,0.0,1.0,61,0.00,,---,0.00,733.00,VWS V14.01,2013-07-08 21:17:00,
2013-07-08 17:22:00,86.2,68.7,30.04,NNW,343,0.0,2.0,56,0.00,,---,0.00,524.00,VWS V14.01,2013-07-08 21:22:00,
2013-07-08 17:28:00,86.2,68.7,30.04,NNW,343,0.0,2.0,56,0.00,,---,0.00,647.00,VWS V14.01,2013-07-08 21:28:00,
2013-07-08 17:33:00,86.0,66.3,30.04,NNW,336,0.0,1.0,52,0.00,,---,0.00,550.00,VWS V14.01,2013-07-08 21:33:00,
2013-07-08 17:38:00,85.9,71.4,30.04,NNW,336,0.0,1.0,62,0.00,,---,0.00,591.00,VWS V14.01,2013-07-08 21:38:00,
2013-07-08 17:43:00,85.4,69.4,30.04,WSW,251,0.0,2.0,59,0.00,,---,0.00,552.00,VWS V14.01,2013-07-08 21:43:00,
2013-07-08 17:48:00,84.7,66.8,30.04,SW,233,0.0,0.0,55,0.00,,---,0.00,547.00,VWS V14.01,2013-07-08 21:48:00,
2013-07-08 17:54:00,84.5,70.5,30.04,SW,230,2.0,4.0,63,0.00,,---,0.00,438.00,VWS V14.01,2013-07-08 21:54:00,
2013-07-08 17:59:00,83.9,68.5,30.05,SW,236,0.0,0.0,60,0.00,,---,0.00,396.00,VWS V14.01,2013-07-08 21:59:00,
2013-07-08 18:04:00,83.5,69.6,30.04,SW,229,0.0,3.0,63,0.00,,---,0.00,330.00,VWS V14.01,2013-07-08 22:04:00,
2013-07-08 18:10:00,82.8,66.5,30.04,SW,229,0.0,0.0,58,0.00,,---,0.00,255.00,VWS V14.01,2013-07-08 22:10:00,
2013-07-08 18:15:00,82.6,68.7,30.04,SE,138,0.0,1.0,63,0.00,,---,0.00,403.00,VWS V14.01,2013-07-08 22:15:00,
2013-07-08 18:20:00,82.6,69.7,30.04,SE,138,0.0,0.0,65,0.00,,---,0.00,216.00,VWS V14.01,2013-07-08 22:20:00,
2013-07-08 18:26:00,82.5,70.4,30.04,SE,138,0.0,1.0,67,0.00,,---,0.00,207.00,VWS V14.01,2013-07-08 22:26:00,
2013-07-08 18:31:00,82.2,71.9,30.04,SE,138,0.0,1.0,71,0.00,,---,0.00,204.00,VWS V14.01,2013-07-08 22:31:00,
2013-07-08 18:37:00,81.2,69.2,30.04,SE,138,0.0,1.0,67,0.00,,---,0.00,209.00,VWS V14.01,2013-07-08 22:37:00,
2013-07-08 18:42:00,80.9,70.2,30.03,SE,138,0.0,0.0,70,0.00,,---,0.00,167.00,VWS V14.01,2013-07-08 22:42:00,
2013-07-08 18:47:00,80.3,68.8,30.03,SE,138,0.0,1.0,68,0.00,,---,0.00,153.00,VWS V14.01,2013-07-08 22:47:00,
2013-07-08 18:52:00,79.8,69.2,30.03,SE,138,0.0,0.0,70,0.00,,---,0.00,142.00,VWS V14.01,2013-07-08 22:52:00,
2013-07-08 18:57:00,79.5,69.7,30.03,SE,138,0.0,0.0,72,0.00,,---,0.00,158.00,VWS V14.01,2013-07-08 22:57:00,
2013-07-08 19:03:00,79.4,69.2,30.03,SE,138,0.0,0.0,71,0.00,,---,0.00,151.00,VWS V14.01,2013-07-08 23:03:00,
2013-07-08 19:08:00,79.3,68.3,30.03,SE,138,0.0,0.0,69,0.00,,---,0.00,162.00,VWS V14.01,2013-07-08 23:08:00,
2013-07-08 19:13:00,79.2,69.0,30.04,SE,138,0.0,0.0,71,0.00,,---,0.00,179.00,VWS V14.01,2013-07-08 23:13:00,
2013-07-08 19:18:00,79.2,70.2,30.04,SE,138,0.0,0.0,74,0.00,,---,0.00,155.00,VWS V14.01,2013-07-08 23:18:00,
2013-07-08 19:23:00,79.3,71.5,30.04,SE,138,0.0,0.0,77,0.00,,---,0.00,167.00,VWS V14.01,2013-07-08 23:23:00,
2013-07-08 19:29:00,79.4,71.6,30.04,SE,138,0.0,0.0,77,0.00,,---,0.00,139.00,VWS V14.01,2013-07-08 23:29:00,
2013-07-08 19:34:00,79.5,71.7,30.04,SE,138,0.0,0.0,77,0.00,,---,0.00,139.00,VWS V14.01,2013-07-08 23:34:00,
2013-07-08 19:40:00,79.3,69.9,30.04,SE,138,0.0,0.0,73,0.00,,---,0.00,149.00,VWS V14.01,2013-07-08 23:40:00,
2013-07-08 19:45:00,79.1,71.3,30.03,SE,138,0.0,0.0,77,0.00,,---,0.00,93.00,VWS V14.01,2013-07-08 23:45:00,
2013-07-08 19:50:00,78.5,69.5,30.04,SE,138,0.0,0.0,74,0.00,,---,0.00,88.00,VWS V14.01,2013-07-08 23:50:00,
2013-07-08 19:55:00,77.7,68.8,30.04,SE,138,0.0,0.0,74,0.00,,---,0.00,83.00,VWS V14.01,2013-07-08 23:55:00,
2013-07-08 20:00:00,77.3,68.8,30.04,SE,138,0.0,0.0,75,0.00,,---,0.00,79.00,VWS V14.01,2013-07-09 00:00:00,
2013-07-08 20:06:00,77.0,69.6,30.04,SE,138,0.0,0.0,78,0.00,,---,0.00,70.00,VWS V14.01,2013-07-09 00:06:00,
2013-07-08 20:11:00,76.8,69.8,30.03,SE,138,0.0,0.0,79,0.00,,---,0.00,62.00,VWS V14.01,2013-07-09 00:11:00,
2013-07-08 20:17:00,76.6,69.2,30.03,SE,138,0.0,0.0,78,0.00,,---,0.00,53.00,VWS V14.01,2013-07-09 00:17:00,
2013-07-08 20:22:00,76.2,68.5,30.03,SE,138,0.0,0.0,77,0.00,,---,0.00,44.00,VWS V14.01,2013-07-09 00:22:00,
2013-07-08 20:27:00,75.8,68.5,30.03,SE,138,0.0,0.0,78,0.00,,---,0.00,39.00,VWS V14.01,2013-07-09 00:27:00,
2013-07-08 20:33:00,75.2,67.9,30.03,SE,138,0.0,0.0,78,0.00,,---,0.00,28.00,VWS V14.01,2013-07-09 00:33:00,
2013-07-08 20:38:00,74.7,67.8,30.04,SE,138,0.0,0.0,79,0.00,,---,0.00,18.00,VWS V14.01,2013-07-09 00:38:00,
2013-07-08 20:44:00,74.1,67.2,30.04,SE,138,0.0,0.0,79,0.00,,---,0.00,11.00,VWS V14.01,2013-07-09 00:44:00,
2013-07-08 20:49:00,73.7,66.4,30.04,SE,138,0.0,0.0,78,0.00,,---,0.00,0.00,VWS V14.01,2013-07-09 00:49:00,
2013-07-08 20:54:00,73.4,66.9,30.05,NE,46,0.0,0.0,80,0.00,,---,0.00,0.00,VWS V14.01,2013-07-09 00:54:00,
2013-07-08 20:59:00,73.1,66.6,30.04,NE,46,0.0,0.0,80,0.00,,---,0.00,0.00,VWS V14.01,2013-07-09 00:59:00,
2013-07-08 21:05:00,72.9,67.4,30.04,NE,46,0.0,0.0,83,0.00,,---,0.00,0.00,VWS V14.01,2013-07-09 01:05:00,
2013-07-08 21:10:00,72.7,67.2,30.05,NE,46,0.0,0.0,83,0.00,,---,0.00,0.00,VWS V14.01,2013-07-09 01:10:00,
2013-07-08 21:15:00,72.4,67.3,30.05,NE,46,0.0,0.0,84,0.00,,---,0.00,0.00,VWS V14.01,2013-07-09 01:15:00,
2013-07-08 21:21:00,72.2,67.4,30.05,NE,46,0.0,0.0,85,0.00,,---,0.00,0.00,VWS V14.01,2013-07-09 01:21:00,
2013-07-08 21:26:00,71.9,67.2,30.05,NE,46,0.0,0.0,85,0.00,,---,0.00,0.00,VWS V14.01,2013-07-09 01:26:00,
2013-07-08 21:32:00,71.5,66.8,30.05,NE,46,0.0,0.0,85,0.00,,---,0.00,0.00,VWS V14.01,2013-07-09 01:32:00,
2013-07-08 21:37:00,71.2,66.5,30.05,NE,46,0.0,0.0,85,0.00,,---,0.00,0.00,VWS V14.01,2013-07-09 01:37:00,
2013-07-08 21:42:00,70.8,66.1,30.05,NE,46,0.0,0.0,85,0.00,,---,0.00,0.00,VWS V14.01,2013-07-09 01:42:00,
2013-07-08 21:48:00,70.6,65.9,30.05,NE,46,0.0,0.0,85,0.00,,---,0.00,0.00,VWS V14.01,2013-07-09 01:48:00,
2013-07-08 21:53:00,70.3,65.6,30.05,NE,46,0.0,0.0,85,0.00,,---,0.00,0.00,VWS V14.01,2013-07-09 01:53:00,
2013-07-08 21:58:00,70.1,65.7,30.06,NE,46,0.0,0.0,86,0.00,,---,0.00,0.00,VWS V14.01,2013-07-09 01:58:00,
2013-07-08 22:03:00,70.0,65.3,30.06,NE,46,0.0,0.0,85,0.00,,---,0.00,0.00,VWS V14.01,2013-07-09 02:03:00,
2013-07-08 22:08:00,69.8,65.1,30.06,NE,46,0.0,0.0,85,0.00,,---,0.00,0.00,VWS V14.01,2013-07-09 02:08:00,
2013-07-08 22:14:00,69.7,65.0,30.06,NE,46,0.0,0.0,85,0.00,,---,0.00,0.00,VWS V14.01,2013-07-09 02:14:00,
2013-07-08 22:19:00,69.7,65.3,30.06,NE,46,0.0,0.0,86,0.00,,---,0.00,0.00,VWS V14.01,2013-07-09 02:19:00,
2013-07-08 22:25:00,69.5,64.5,30.07,NE,46,0.0,0.0,84,0.00,,---,0.00,0.00,VWS V14.01,2013-07-09 02:25:00,
2013-07-08 22:30:00,69.5,65.1,30.07,NE,46,0.0,0.0,86,0.00,,---,0.00,0.00,VWS V14.01,2013-07-09 02:30:00,
2013-07-08 22:36:00,69.3,64.9,30.07,NE,46,0.0,0.0,86,0.00,,---,0.00,0.00,VWS V14.01,2013-07-09 02:36:00,
2013-07-08 22:41:00,69.2,64.5,30.07,NE,46,0.0,0.0,85,0.00,,---,0.00,0.00,VWS V14.01,2013-07-09 02:41:00,
2013-07-08 22:46:00,69.1,64.4,30.07,NE,46,0.0,0.0,85,0.00,,---,0.00,0.00,VWS V14.01,2013-07-09 02:46:00,
2013-07-08 22:52:00,69.0,65.0,30.07,NE,46,0.0,0.0,87,0.00,,---,0.00,0.00,VWS V14.01,2013-07-09 02:52:00,
2013-07-08 22:57:00,68.9,64.6,30.08,NE,46,0.0,0.0,86,0.00,,---,0.00,0.00,VWS V14.01,2013-07-09 02:57:00,
2013-07-08 23:02:00,68.8,64.4,30.08,NE,46,0.0,0.0,86,0.00,,---,0.00,0.00,VWS V14.01,2013-07-09 03:02:00,
2013-07-08 23:07:00,68.8,64.8,30.08,NE,46,0.0,0.0,87,0.00,,---,0.00,0.00,VWS V14.01,2013-07-09 03:07:00,
2013-07-08 23:13:00,68.8,64.8,30.08,NE,46,0.0,0.0,87,0.00,,---,0.00,0.00,VWS V14.01,2013-07-09 03:13:00,
2013-07-08 23:18:00,68.8,65.1,30.08,NE,46,0.0,0.0,88,0.00,,---,0.00,0.00,VWS V14.01,2013-07-09 03:18:00,
2013-07-08 23:24:00,68.7,64.7,30.08,NE,46,0.0,0.0,87,0.00,,---,0.00,0.00,VWS V14.01,2013-07-09 03:24:00,
2013-07-08 23:30:00,68.6,64.9,30.08,NE,46,0.0,0.0,88,0.00,,---,0.00,0.00,VWS V14.01,2013-07-09 03:30:00,
2013-07-08 23:35:00,68.4,64.7,30.08,NE,46,0.0,0.0,88,0.00,,---,0.00,0.00,VWS V14.01,2013-07-09 03:35:00,
2013-07-08 23:40:00,68.3,64.6,30.08,NE,46,0.0,0.0,88,0.00,,---,0.00,0.00,VWS V14.01,2013-07-09 03:40:00,
2013-07-08 23:46:00,68.2,64.5,30.08,NE,46,0.0,0.0,88,0.00,,---,0.00,0.00,VWS V14.01,2013-07-09 03:46:00,
2013-07-08 23:51:00,68.1,64.4,30.08,NE,46,0.0,0.0,88,0.00,,---,0.00,0.00,VWS V14.01,2013-07-09 03:51:00,
2013-07-08 23:56:00,67.9,64.2,30.08,NE,46,0.0,0.0,88,0.00,,---,0.00,0.00,VWS V14.01,2013-07-09 03:56:00,